Location: Carrières
(48.9495°N, 2.0407°E)
Time: 20:25:04
(UTC+00:00)

Transit 2A - Pass Details

Date: 28 April 2024
Orbit: 594 x 957 km, 66.7° (Epoch: 18 May)

Event Time Altitude Azimuth Distance (km) Brightness Sun altitude
Rises 13:56:29 0° 316° (NW) 3,314 9.3 46.8°
Reaches altitude 10° 13:59:06 10° 306° (NW) 2,438 8.9 46.4°
Maximum altitude 14:03:54 29° 248° (WSW) 1,558 9.2 45.8°
Drops below altitude 10° 14:08:59 10° 191° (S) 2,604 9.4 45.2°
Sets 14:11:54 0° 181° (S) 3,579 9.8 44.8°
